Location: Central Falls
(41.8900°N, 71.3929°W)
Time: 12:14:41
(UTC+00:00)

Tiros 1 despin weight - Pass Details

Date: 03 December 2023
Orbit: 581 x 625 km, 48.2° (Epoch: 20 February)

Event Time Altitude Azimuth Distance (km) Brightness Sun altitude
Rises 21:51:15 0° 197° (SSW) 2,798 ? -6.9°
Reaches altitude 10° 21:54:06 10° 178° (S) 1,895 ? -7.4°
Maximum altitude 21:57:03 18° 135° (SE) 1,445 ? -7.9°
Drops below altitude 10° 22:00:00 10° 92° (E) 1,894 ? -8.4°
Enters shadow 22:00:18 - 89° (E) 1,977 ? -8.4°
Sets 22:02:50 0° 73° (ENE) 2,796 - -8.9°
